Вернуться в каталог

FENGYUN 1C DEB

АктивенSSO
NORAD 29985·DEBRIS·🇨🇳 China

Запущен May 10, 1999 с Taiyuan Satellite Launch Center

Loading…

Ближайшие Пролёты (ближайшие 24 часа)

TLE

СвежийSource: Space-Track

Эпоха: Sep 14, 2026, 07:58 UTC

1 29985U 99025LK  26257.33252826  .00000056  00000-0  55365-4 0  9990
2 29985  98.7020 268.6500 0029206 147.4024 225.0550 14.10371497 12334

Отслеживайте FENGYUN 1C DEB в реальном времени с AllMySat

Download on the App Store